TimeEDT,TemperatureF,Dew PointF,Humidity,Sea Level PressureIn,VisibilityMPH,Wind Direction,Wind SpeedMPH,Gust SpeedMPH,PrecipitationIn,Events,Conditions,WindDirDegrees,DateUTC
12:56 AM,46.0,43.0,89,30.22,10.0,Calm,Calm,-,N/A,,Scattered Clouds,0,2013-03-10 05:56:00
1:56 AM,45.0,43.0,93,30.21,10.0,Calm,Calm,-,N/A,,Scattered Clouds,0,2013-03-10 06:56:00
3:56 AM,44.1,42.1,93,30.19,10.0,Calm,Calm,-,N/A,,Scattered Clouds,0,2013-03-10 07:56:00
4:56 AM,43.0,41.0,93,30.19,10.0,Calm,Calm,-,N/A,,Partly Cloudy,0,2013-03-10 08:56:00
5:56 AM,44.1,43.0,96,30.19,10.0,Calm,Calm,-,N/A,,Scattered Clouds,0,2013-03-10 09:56:00
6:56 AM,44.1,43.0,96,30.19,10.0,Calm,Calm,-,N/A,,Scattered Clouds,0,2013-03-10 10:56:00
7:56 AM,44.6,42.8,93,30.21,10.0,Calm,Calm,-,N/A,,Scattered Clouds,0,2013-03-10 11:56:00
8:56 AM,52.0,51.1,97,30.24,10.0,Calm,Calm,-,N/A,,Scattered Clouds,0,2013-03-10 12:56:00
9:56 AM,60.1,54.0,80,30.24,10.0,NNE,4.6,-,N/A,,Scattered Clouds,30,2013-03-10 13:56:00
10:56 AM,68.0,55.0,63,30.21,10.0,East,9.2,-,N/A,,Scattered Clouds,90,2013-03-10 14:56:00
11:56 AM,71.1,54.0,55,30.20,10.0,East,10.4,-,N/A,,Scattered Clouds,100,2013-03-10 15:56:00
12:56 PM,72.0,54.0,53,30.18,10.0,East,9.2,24.2,N/A,,Mostly Cloudy,100,2013-03-10 16:56:00
1:56 PM,73.0,52.0,48,30.16,10.0,ESE,15.0,-,N/A,,Scattered Clouds,110,2013-03-10 17:56:00
2:56 PM,73.0,52.0,48,30.15,10.0,ESE,15.0,20.7,N/A,,Mostly Cloudy,110,2013-03-10 18:56:00
3:56 PM,71.1,51.1,49,30.15,10.0,ESE,10.4,-,N/A,,Mostly Cloudy,120,2013-03-10 19:56:00
4:56 PM,70.0,51.1,51,30.15,10.0,East,10.4,-,N/A,,Mostly Cloudy,100,2013-03-10 20:56:00
5:56 PM,70.0,52.0,53,30.15,10.0,ESE,15.0,19.6,N/A,,Scattered Clouds,120,2013-03-10 21:56:00
6:56 PM,68.0,51.1,55,30.16,10.0,ESE,12.7,-,N/A,,Scattered Clouds,110,2013-03-10 22:56:00
7:56 PM,64.0,52.0,65,30.16,10.0,East,8.1,-,N/A,,Partly Cloudy,100,2013-03-10 23:56:00
8:56 PM,61.0,53.1,75,30.17,10.0,East,6.9,-,N/A,,Clear,90,2013-03-11 00:56:00
9:56 PM,61.0,54.0,78,30.17,10.0,East,6.9,-,N/A,,Clear,100,2013-03-11 01:56:00
10:56 PM,61.0,54.0,78,30.17,10.0,East,8.1,-,N/A,,Clear,100,2013-03-11 02:56:00
11:56 PM,62.1,54.0,75,30.16,10.0,ESE,8.1,-,N/A,,Clear,110,2013-03-11 03:56:00
12:56 AM,60.1,54.0,80,30.14,10.0,ESE,6.9,-,N/A,,Clear,110,2013-03-11 04:56:00